• In India
  • List of Countries
  • For 7 days
  • Water Temperature
  • Satellite Maps
  • Weather Map
  • Weather Widgets
  • user-avatar
    Login

    Hourly Weather Zaliznychne

    Today, 13 November, Tuesday

    Time Temperature Precipitation Wind Pressure Humidity
    00:00 -8°C° 0 mm 5 mps 766 mmHg 40%
    01:00 -8°C° 0 mm 5 mps 766 mmHg 40%
    02:00 -8°C° 0 mm 5 mps 766 mmHg 41%
    03:00 -8°C° 0 mm 5 mps 766 mmHg 40%
    04:00 -8°C° 0 mm 5 mps 766 mmHg 39%
    05:00 -8°C° 0 mm 5 mps 766 mmHg 37%
    06:00 -8°C° 0 mm 5 mps 766 mmHg 36%
    07:00 -8°C° 0 mm 5 mps 766 mmHg 34%
    08:00 -8°C° 0 mm 5 mps 766 mmHg 32%
    09:00 -7°C° 0 mm 5 mps 766 mmHg 32%
    10:00 -6°C° 0 mm 5 mps 766 mmHg 31%
    11:00 -5°C° 0 mm 5 mps 766 mmHg 31%
    12:00 -4°C° 0 mm 5 mps 765 mmHg 32%
    13:00 -4°C° 0 mm 5 mps 765 mmHg 34%
    14:00 -2°C° 0 mm 5 mps 765 mmHg 35%
    15:00 -3°C° 0 mm 4 mps 765 mmHg 39%
    16:00 -4°C° 0 mm 4 mps 764 mmHg 43%
    17:00 -5°C° 0 mm 3 mps 764 mmHg 47%
    18:00 -5°C° 0 mm 3 mps 764 mmHg 49%
    19:00 -5°C° 0 mm 4 mps 764 mmHg 50%
    20:00 -5°C° 0 mm 4 mps 764 mmHg 52%
    21:00 -5°C° 0 mm 4 mps 764 mmHg 55%
    22:00 -5°C° 0 mm 4 mps 763 mmHg 57%
    23:00 -5°C° 0 mm 3 mps 763 mmHg 60%

    Tomorrow, 14 November, Wednesday

    Time Temperature Precipitation Wind Pressure Humidity
    00:00 -5°C° 0 mm 3 mps 763 mmHg 61%
    01:00 -5°C° 0 mm 3 mps 763 mmHg 63%
    02:00 -5°C° 0 mm 3 mps 762 mmHg 65%
    03:00 -5°C° 0 mm 3 mps 762 mmHg 67%
    04:00 -5°C° 0 mm 3 mps 761 mmHg 70%
    05:00 -6°C° 0 mm 3 mps 761 mmHg 72%
    06:00 -5°C° 0 mm 4 mps 761 mmHg 73%
    07:00 -5°C° 0 mm 4 mps 761 mmHg 73%
    08:00 -4°C° 0 mm 4 mps 760 mmHg 74%
    09:00 -3°C° 0 mm 4 mps 760 mmHg 71%
    10:00 -2°C° 0 mm 4 mps 760 mmHg 68%
    11:00 0°C° 0 mm 4 mps 759 mmHg 65%
    12:00 0°C° 0 mm 4 mps 759 mmHg 65%
    13:00 0°C° 0 mm 4 mps 759 mmHg 65%
    14:00 +1°C° 0 mm 4 mps 758 mmHg 64%
    15:00 0°C° 0 mm 4 mps 758 mmHg 69%
    16:00 0°C° 0 mm 3 mps 758 mmHg 74%
    17:00 -2°C° 0 mm 3 mps 758 mmHg 79%
    18:00 -2°C° 0 mm 3 mps 758 mmHg 80%
    19:00 -2°C° 0 mm 3 mps 758 mmHg 82%
    20:00 -2°C° 0 mm 3 mps 758 mmHg 84%
    21:00 -2°C° 0 mm 3 mps 758 mmHg 85%
    22:00 -2°C° 0 mm 3 mps 758 mmHg 87%
    23:00 -2°C° 0 mm 3 mps 758 mmHg 88%

    Day after tomorrow, 15 November, Thursday

    Time Temperature Precipitation Wind Pressure Humidity
    00:00 -4°C° 0 mm 3 mps 758 mmHg 88%
    01:00 -4°C° 0 mm 3 mps 758 mmHg 88%
    02:00 -4°C° 0 mm 4 mps 758 mmHg 89%
    03:00 -4°C° 0 mm 4 mps 758 mmHg 88%
    04:00 -4°C° 0 mm 4 mps 758 mmHg 87%
    05:00 -4°C° 0 mm 4 mps 758 mmHg 86%
    06:00 -4°C° 0 mm 4 mps 758 mmHg 83%
    07:00 -5°C° 0 mm 5 mps 759 mmHg 81%
    08:00 -5°C° 0 mm 5 mps 759 mmHg 79%
    09:00 -4°C° 0 mm 5 mps 759 mmHg 72%
    10:00 -1°C° 0 mm 5 mps 759 mmHg 64%
    11:00 0°C° 0 mm 5 mps 759 mmHg 57%
    12:00 0°C° 0 mm 5 mps 759 mmHg 55%
    13:00 0°C° 0 mm 5 mps 759 mmHg 53%
    14:00 +1°C° 0 mm 5 mps 759 mmHg 50%
    15:00 0°C° 0 mm 5 mps 759 mmHg 53%
    16:00 -1°C° 0 mm 5 mps 760 mmHg 56%
    17:00 -2°C° 0 mm 4 mps 760 mmHg 59%
    18:00 -4°C° 0 mm 5 mps 760 mmHg 58%
    19:00 -4°C° 0 mm 5 mps 760 mmHg 57%
    20:00 -4°C° 0 mm 5 mps 761 mmHg 56%
    21:00 -5°C° 0 mm 5 mps 761 mmHg 54%
    22:00 -4°C° 0 mm 4 mps 761 mmHg 52%
    23:00 -4°C° 0 mm 4 mps 761 mmHg 50%

    16 November, Friday

    Time Temperature Precipitation Wind Pressure Humidity
    00:00 -5°C° 0 mm 4 mps 761 mmHg 48%
    01:00 -5°C° 0 mm 4 mps 761 mmHg 47%
    02:00 -6°C° 0 mm 5 mps 761 mmHg 45%
    03:00 -6°C° 0 mm 5 mps 761 mmHg 44%
    04:00 -6°C° 0 mm 5 mps 761 mmHg 42%
    05:00 -6°C° 0 mm 5 mps 761 mmHg 41%
    06:00 -6°C° 0 mm 5 mps 762 mmHg 39%
    07:00 -6°C° 0 mm 5 mps 762 mmHg 37%
    08:00 -6°C° 0 mm 6 mps 762 mmHg 36%
    09:00 -4°C° 0 mm 6 mps 762 mmHg 35%
    10:00 -3°C° 0 mm 6 mps 762 mmHg 34%
    11:00 -2°C° 0 mm 6 mps 762 mmHg 32%
    12:00 -2°C° 0 mm 6 mps 762 mmHg 33%
    13:00 -1°C° 0 mm 6 mps 762 mmHg 34%
    14:00 -1°C° 0 mm 6 mps 762 mmHg 35%
    15:00 -1°C° 0 mm 5 mps 762 mmHg 36%
    16:00 -1°C° 0 mm 5 mps 762 mmHg 36%
    17:00 -2°C° 0 mm 5 mps 762 mmHg 37%
    18:00 -4°C° 0 mm 5 mps 762 mmHg 36%
    19:00 -4°C° 0 mm 5 mps 762 mmHg 35%
    20:00 -4°C° 0 mm 5 mps 763 mmHg 34%
    21:00 -4°C° 0 mm 5 mps 763 mmHg 35%
    22:00 -4°C° 0 mm 5 mps 763 mmHg 35%
    23:00 -5°C° 0 mm 5 mps 763 mmHg 35%

    17 November, Saturday

    Time Temperature Precipitation Wind Pressure Humidity
    00:00 -5°C° 0 mm 5 mps 763 mmHg 36%
    01:00 -5°C° 0 mm 5 mps 763 mmHg 37%
    02:00 -5°C° 0 mm 5 mps 762 mmHg 37%
    03:00 -6°C° 0 mm 5 mps 762 mmHg 37%
    04:00 -6°C° 0 mm 5 mps 762 mmHg 37%
    05:00 -5°C° 0 mm 4 mps 762 mmHg 37%
    06:00 -6°C° 0 mm 5 mps 762 mmHg 36%
    07:00 -5°C° 0 mm 5 mps 762 mmHg 35%
    08:00 -5°C° 0 mm 5 mps 762 mmHg 34%
    09:00 -4°C° 0 mm 5 mps 762 mmHg 32%
    10:00 -1°C° 0 mm 5 mps 762 mmHg 29%
    11:00 0°C° 0 mm 5 mps 762 mmHg 27%
    12:00 +1°C° 0 mm 5 mps 762 mmHg 26%
    13:00 +1°C° 0 mm 5 mps 761 mmHg 26%
    14:00 +1°C° 0 mm 4 mps 761 mmHg 26%
    15:00 0°C° 0 mm 4 mps 761 mmHg 27%
    16:00 -1°C° 0 mm 4 mps 761 mmHg 29%
    17:00 -1°C° 0 mm 3 mps 761 mmHg 31%
    18:00 -2°C° 0 mm 3 mps 761 mmHg 31%
    19:00 -2°C° 0 mm 3 mps 761 mmHg 31%
    20:00 -4°C° 0 mm 3 mps 761 mmHg 32%
    21:00 -3°C° 0 mm 2 mps 760 mmHg 31%
    22:00 -3°C° 0 mm 2 mps 760 mmHg 30%
    23:00 -3°C° 0 mm 2 mps 760 mmHg 30%

    18 November, Sunday

    Time Temperature Precipitation Wind Pressure Humidity
    00:00 -3°C° 0 mm 2 mps 760 mmHg 29%
    01:00 -2°C° 0 mm 1 mps 759 mmHg 29%
    02:00 -2°C° 0 mm 1 mps 759 mmHg 28%
    03:00 -2°C° 0 mm 1 mps 758 mmHg 28%
    04:00 -4°C° 0 mm 2 mps 757 mmHg 28%
    05:00 -4°C° 0 mm 2 mps 757 mmHg 28%
    06:00 -4°C° 0 mm 2 mps 756 mmHg 27%
    07:00 -4°C° 0 mm 3 mps 756 mmHg 27%
    08:00 -4°C° 0 mm 3 mps 755 mmHg 26%
    09:00 -2°C° 0 mm 3 mps 754 mmHg 27%
    10:00 -1°C° 0 mm 4 mps 754 mmHg 28%
    11:00 0°C° 0 mm 4 mps 753 mmHg 30%
    12:00 0°C° 0.1 mm 4 mps 752 mmHg 36%
    13:00 0°C° 0.1 mm 4 mps 751 mmHg 42%
    14:00 0°C° 0.1 mm 4 mps 751 mmHg 48%
    15:00 0°C° 0.3 mm 4 mps 750 mmHg 56%
    16:00 -1°C° 0.3 mm 4 mps 749 mmHg 64%
    17:00 -2°C° 0.3 mm 4 mps 749 mmHg 72%
    18:00 -1°C° 0.4 mm 3 mps 748 mmHg 78%
    19:00 -1°C° 0.4 mm 3 mps 748 mmHg 84%
    20:00 -1°C° 0.4 mm 3 mps 747 mmHg 90%
    21:00 -1°C° 0.3 mm 3 mps 747 mmHg 91%
    22:00 -1°C° 0.3 mm 3 mps 747 mmHg 93%
    23:00 -1°C° 0.3 mm 2 mps 747 mmHg 94%
    Show more